Wind_Speed
46 44 45 47 46 45 43 42 41 38 32 28 26 24 24 24 23 20 18 16 14 13 10 9 13 14 13 10 8 6 5 6 6 6 6 7 7 8 9 9 9 10 11 13 14 14 14 16 20 23 23 21 19 16 15 15 16 17 17 17 16 15 13 11 9 7 6 6 6 7 9 10 11 12 13 14 14 15 15 15 16 17 18 19 19 20
48 48 50 50 48 46 44 43 43 41 36 32 30 28 26 26 26 23 21 19 16 14 10 8 11 13 13 10 8 6 4 5 6 5 6 7 8 8 9 10 10 10 12 15 16 16 16 17 21 24 22 20 18 16 15 16 17 17 18 18 17 15 13 11 8 6 5 4 5 6 8 9 11 12 13 13 14 14 15 15 16 17 17 18 19 19
50 51 52 50 48 46 45 44 45 43 39 36 34 31 29 29 28 26 24 21 17 14 11 8 9 12 13 11 8 6 5 5 5 5 6 8 8 7 8 10 11 12 14 16 17 17 18 20 23 23 21 18 17 15 14 16 18 17 17 17 16 15 13 10 8 6 4 3 4 5 7 9 10 11 12 13 14 14 15 16 16 16 17 18 18 19
48 52 51 49 48 47 46 45 45 44 41 39 38 35 34 33 31 30 26 22 18 15 12 10 9 9 11 11 7 6 6 5 5 5 6 7 7 7 9 11 12 13 15 17 18 19 20 22 23 22 19 17 16 15 15 17 18 17 16 17 16 14 12 10 8 5 3 2 3 5 7 9 10 11 12 13 14 15 15 16 16 17 17 18 18 19
42 46 48 49 50 49 48 47 46 45 44 42 40 40 40 36 34 33 28 24 20 16 15 14 11 9 8 8 7 7 8 6 6 5 6 8 9 10 11 12 13 14 16 18 18 19 21 22 22 21 19 18 17 15 15 17 19 16 15 16 15 13 11 9 7 5 3 1 2 4 7 8 10 12 13 13 14 15 15 16 16 17 17 17 18 19
36 38 41 46 49 50 50 49 48 48 47 45 43 45 45 40 37 35 30 27 22 19 19 16 13 11 8 7 8 10 10 9 8 8 9 10 11 11 11 11 12 14 15 17 18 20 21 22 22 20 19 18 15 12 12 15 16 15 14 15 15 13 10 9 6 5 3 1 2 4 6 8 10 11 12 13 14 14 15 15 16 16 17 17 17 18
32 32 34 39 44 47 49 49 50 49 48 46 47 50 48 42 39 37 33 30 26 23 20 17 15 12 10 9 9 11 12 12 11 11 11 11 11 11 11 11 11 12 13 14 17 19 20 20 20 19 17 15 12 9 11 14 14 13 13 14 13 12 10 9 7 5 4 3 3 4 6 8 10 11 12 13 13 14 15 15 15 15 16 17 17 18
26 28 30 32 35 39 44 49 52 50 48 51 53 52 48 44 42 40 36 32 30 25 19 18 17 14 13 13 9 10 14 16 15 13 13 13 13 12 12 11 11 11 12 13 16 18 18 17 17 17 15 13 11 10 12 14 13 12 11 12 12 11 10 9 8 6 5 4 4 4 5 7 9 10 11 12 13 13 14 14 14 15 16 16 17 17
22 24 26 25 27 32 38 44 49 49 50 55 55 50 48 47 45 44 39 34 33 27 19 19 20 17 17 16 11 12 17 19 17 15 15 16 16 15 14 13 13 12 13 14 15 17 18 17 17 16 15 14 11 11 14 15 13 12 11 12 12 12 11 10 9 8 7 6 5 5 5 6 8 10 11 12 12 13 14 14 14 15 16 16 17 18
22 22 19 19 24 28 31 35 39 43 49 56 54 50 50 48 46 46 41 38 36 28 21 22 22 20 21 19 16 17 19 19 18 18 19 19 19 18 17 16 15 15 14 14 15 17 18 19 19 18 17 15 14 14 16 16 15 15 14 14 14 13 13 11 11 10 9 8 7 7 6 6 7 9 10 11 12 13 14 14 14 15 16 17 17 18
24 21 18 20 22 22 24 27 30 36 45 52 52 50 52 49 48 47 43 41 37 28 25 27 26 24 23 22 22 23 21 18 17 20 22 21 21 20 20 19 17 17 17 16 16 18 19 20 20 20 19 18 17 18 19 19 18 17 16 16 15 15 13 13 13 12 11 10 9 9 9 8 7 8 10 11 12 13 14 14 15 15 16 17 18 19
24 22 21 22 22 20 21 23 27 31 37 44 47 50 52 51 51 48 45 43 36 29 30 33 31 28 26 27 28 26 23 21 20 22 23 24 24 23 22 22 21 20 20 19 18 18 19 20 21 21 20 19 19 20 20 20 19 18 17 17 16 15 15 14 14 14 12 12 12 12 11 10 9 8 9 10 12 13 14 15 15 15 16 18 19 20
23 24 25 24 24 23 22 23 24 27 31 35 39 45 48 50 51 48 46 45 39 36 38 39 35 29 28 31 31 28 27 26 24 23 23 24 24 25 25 24 23 23 22 21 20 20 21 22 23 21 20 20 20 20 21 21 20 19 18 17 17 16 16 17 16 15 14 13 13 14 14 13 12 11 10 11 11 13 14 15 16 16 17 19 20 21
26 27 27 27 28 27 24 23 22 22 25 27 31 35 40 45 48 46 48 48 44 43 44 44 37 28 29 34 34 32 32 30 27 25 24 24 23 24 25 25 25 25 24 23 22 22 23 24 23 22 22 21 21 21 22 22 22 20 19 18 18 18 17 18 17 17 16 15 15 15 16 16 15 14 14 13 13 13 14 16 16 17 18 20 21 22
30 28 29 31 31 27 23 23 24 22 21 21 24 27 29 36 41 44 50 51 48 47 47 46 38 29 30 36 38 36 34 32 29 27 25 25 24 24 25 26 27 27 26 26 25 25 25 25 24 23 23 23 22 22 24 24 23 21 20 19 19 18 18 18 18 18 18 17 17 17 17 17 17 17 17 16 16 15 15 16 17 18 19 21 23 24
32 31 35 34 30 26 24 26 26 22 20 20 21 20 24 31 36 41 47 51 51 49 47 45 41 35 35 38 39 37 35 34 33 30 28 27 27 27 26 27 28 29 29 28 27 27 27 26 25 25 25 25 24 24 25 24 24 22 21 20 19 19 20 19 19 19 19 19 20 19 18 18 19 20 20 20 19 18 17 17 18 19 20 22 24 25
34 35 38 34 30 29 28 29 25 20 20 20 16 18 25 29 30 31 37 45 49 47 44 44 44 42 39 38 39 38 37 37 36 34 33 32 31 30 29 31 31 31 31 31 30 30 29 28 26 27 27 27 26 26 25 24 24 23 23 23 22 21 21 21 20 20 21 21 21 21 20 20 21 21 22 22 22 21 20 19 20 20 21 23 25 26
39 40 40 35 32 33 32 29 24 19 19 18 17 22 27 25 23 24 28 35 42 44 45 47 48 47 43 41 41 41 40 41 40 39 37 36 35 34 33 34 35 34 33 33 33 33 32 30 29 29 29 28 27 27 26 25 25 26 26 25 24 24 24 23 22 22 22 22 23 23 23 22 22 22 23 24 24 24 23 22 22 22 22 24 26 28
42 41 41 38 36 37 35 29 23 21 21 21 24 26 24 22 22 22 22 28 36 41 45 50 52 49 46 44 45 46 45 44 44 43 42 40 39 39 39 38 37 35 34 35 35 35 34 32 31 31 30 29 29 28 28 27 28 28 27 26 26 26 26 25 25 24 24 24 24 25 25 25 24 24 24 25 26 26 26 25 25 25 25 26 28 29
46 43 43 42 40 39 36 29 24 24 26 27 27 25 23 23 24 22 20 23 28 34 40 46 50 49 49 49 50 50 49 48 47 46 45 44 43 42 42 40 39 38 37 36 37 37 36 34 33 32 31 31 31 30 30 30 30 30 29 28 28 28 28 28 27 27 27 27 27 27 27 27 27 27 27 27 27 28 28 28 28 28 28 29 30 31
51 47 45 47 45 40 35 30 28 30 31 29 26 25 24 24 23 21 18 18 22 26 31 37 44 49 53 55 55 54 52 51 50 48 47 46 45 45 44 43 42 41 40 39 39 38 37 35 34 33 33 33 33 32 32 33 33 32 31 30 30 30 30 30 29 28 29 29 29 29 29 29 30 30 30 30 30 30 30 30 30 31 32 32 32 33
56 51 49 50 47 41 38 37 37 38 36 32 27 25 25 23 21 18 15 17 20 21 24 29 35 46 55 58 58 57 55 53 52 51 49 48 47 46 46 45 44 44 44 42 40 39 38 36 35 35 35 35 34 34 34 34 34 33 33 32 31 31 32 32 31 30 30 31 31 30 31 31 32 33 32 32 33 33 32 32 33 34 34 34 34 35
61 57 53 52 50 46 45 44 42 41 39 34 28 27 27 24 21 19 18 21 22 20 22 24 27 39 51 57 59 60 57 55 55 54 51 49 49 49 48 47 47 46 46 45 43 41 39 38 36 36 36 36 36 36 36 35 35 35 34 33 32 32 33 32 32 32 32 32 32 31 32 32 33 33 33 33 33 33 33 34 35 36 36 36 36 37
66 60 55 55 55 53 52 49 45 43 41 36 31 31 31 27 26 25 25 26 23 20 22 22 24 34 43 49 55 60 60 58 57 56 54 53 52 52 52 51 49 49 48 48 47 45 42 40 39 39 39 39 38 38 37 37 37 36 35 34 33 34 33 33 33 33 33 33 33 32 33 33 34 33 33 33 34 34 34 35 37 37 37 38 38 39
69 64 62 61 59 57 55 51 46 43 43 40 37 36 35 34 33 31 30 28 23 21 24 23 25 34 38 40 47 54 59 60 60 58 58 58 56 55 55 53 51 51 50 50 49 48 46 44 43 43 42 41 40 39 39 38 38 37 37 36 35 35 35 34 34 35 35 34 34 34 35 35 35 35 35 35 36 37 37 38 38 38 38 39 40 41
71 70 69 65 61 58 56 53 50 49 49 46 43 41 40 40 38 35 33 28 22 22 25 23 27 35 38 36 39 44 51 58 62 62 60 60 59 58 56 55 54 53 52 52 52 51 49 48 48 47 46 45 43 42 41 41 40 40 39 38 38 37 37 36 36 36 36 36 36 37 37 37 38 37 37 37 38 39 39 39 39 39 40 40 42 43
73 72 72 68 64 60 58 58 58 57 55 50 47 46 45 44 41 39 35 27 23 25 25 24 29 35 37 37 37 38 41 48 57 62 62 61 61 60 59 57 55 55 54 54 54 54 53 52 51 50 49 48 47 45 44 44 43 43 42 41 40 40 40 39 39 39 38 38 39 40 40 40 40 39 38 39 40 41 42 41 41 41 41 42 44 45
75 73 73 71 67 63 61 61 62 61 57 53 52 50 48 47 45 41 35 29 30 30 25 27 32 33 35 39 39 37 37 38 45 53 58 62 63 62 61 60 58 57 57 57 57 56 55 55 54 52 51 50 49 48 47 46 46 46 45 45 44 43 42 42 42 42 41 41 42 42 42 42 42 41 41 41 42 43 43 43 43 42 43 44 46 46
77 75 75 74 70 65 63 64 65 64 61 58 56 54 52 51 48 44 38 36 37 33 28 33 35 30 31 36 38 39 39 37 38 41 47 56 63 65 65 63 62 61 61 60 59 58 58 58 58 56 53 52 51 51 50 49 49 48 47 47 47 46 46 45 45 44 44 45 45 44 44 44 44 44 43 43 44 45 44 44 43 43 44 46 47 45
81 78 78 77 72 68 68 68 68 68 67 64 61 58 56 54 50 46 43 40 39 35 33 36 34 29 30 33 36 40 42 41 40 38 39 46 55 64 68 66 65 65 65 64 63 61 61 61 60 59 57 55 53 53 52 52 52 51 51 50 50 49 49 48 47 47 47 48 47 45 45 45 46 46 46 45 45 46 46 45 45 45 46 48 48 46
84 81 81 80 75 72 71 72 72 73 71 69 67 63 60 56 52 49 47 44 41 38 37 37 34 31 31 33 35 40 43 43 43 42 40 40 44 53 62 67 67 67 67 67 66 65 64 63 63 62 60 58 56 56 55 55 55 54 54 53 53 53 52 51 49 49 49 50 49 47 46 47 48 48 47 47 47 48 48 48 47 48 49 50 50 49
87 85 84 82 79 76 75 76 77 76 76 76 72 66 61 57 54 52 51 48 45 43 41 38 34 33 35 36 38 42 43 43 44 45 44 41 40 42 49 58 65 68 70 70 69 68 66 65 65 64 62 61 60 59 59 59 58 57 56 56 56 55 54 53 52 51 51 52 50 49 49 49 48 49 49 49 50 50 50 49 50 51 53 53 53 52
90 88 87 86 82 79 79 81 80 81 84 80 70 63 61 60 58 57 57 53 50 48 44 38 36 38 40 40 40 42 42 41 43 45 44 42 41 40 41 46 53 61 68 71 72 71 70 69 68 67 66 65 64 63 63 62 62 60 60 59 59 56 54 54 54 54 54 54 52 51 51 50 50 50 51 51 52 52 52 52 53 55 56 57 56 55
94 91 91 90 85 81 83 85 84 87 87 76 65 64 66 66 64 64 62 58 55 53 47 43 43 44 43 42 42 43 43 40 40 42 42 43 43 42 42 42 45 50 58 66 71 73 73 73 72 71 69 69 69 67 66 66 65 64 64 62 60 57 56 57 57 57 56 55 55 54 54 53 52 52 53 54 54 54 55 56 57 57 58 59 58 59
97 94 94 93 87 84 87 88 88 88 82 72 69 72 72 71 71 70 67 63 59 55 50 48 48 47 45 45 45 45 43 41 41 42 42 43 44 44 45 44 44 45 50 57 64 69 72 74 75 74 73 73 72 71 70 69 69 68 68 66 63 61 60 60 60 59 58 58 57 57 56 55 55 55 56 57 57 58 59 59 59 60 61 61 62 62
101 98 97 95 90 87 89 91 90 85 78 74 75 77 76 77 77 73 69 65 61 57 53 51 50 50 49 48 46 45 45 44 45 44 42 41 42 44 46 46 46 45 47 50 55 60 66 71 73 75 76 76 76 75 72 72 73 72 71 70 68 66 65 64 62 61 61 60 60 60 59 59 58 58 59 60 61 61 62 62 63 64 65 65 65 65
105 103 100 98 94 91 91 92 90 85 80 79 80 80 80 81 78 74 72 68 64 61 58 55 54 53 52 51 49 48 48 48 48 45 41 40 41 43 45 46 47 46 47 48 50 54 60 65 70 73 76 78 78 77 75 75 76 76 75 73 72 71 70 67 65 64 64 64 64 63 63 63 62 62 62 63 64 64 64 66 68 68 68 68 68 67
110 108 105 102 99 95 95 95 93 88 84 83 84 83 82 82 80 77 75 72 68 64 60 58 57 57 56 54 53 51 51 51 50 46 44 43 43 44 45 45 46 46 47 47 49 51 55 59 64 68 72 76 77 77 78 79 79 78 78 76 76 75 73 70 69 69 68 68 68 68 67 67 66 65 66 66 67 67 69 71 72 72 72 71 71 70
114 112 110 108 104 101 99 98 95 91 87 86 87 86 84 83 82 81 79 74 67 63 61 60 60 60 59 58 55 54 53 52 51 49 48 47 46 46 46 46 46 46 47 48 49 49 51 54 57 62 66 70 74 77 79 80 81 81 79 78 78 78 76 73 72 73 73 73 72 72 71 70 69 68 70 70 70 71 73 75 75 76 75 74 73 73
118 116 114 112 109 105 103 101 97 94 90 90 90 88 85 84 84 85 82 73 65 64 64 64 63 63 62 60 58 56 56 55 53 52 51 51 50 49 48 47 47 48 48 48 50 50 50 51 53 56 59 63 68 74 78 79 80 80 80 80 80 79 77 76 76 77 77 77 77 76 74 73 72 72 74 75 75 75 77 78 78 77 77 77 77 76
121 119 118 115 112 110 107 103 101 98 95 93 93 91 88 87 87 87 81 72 68 69 69 66 66 65 63 62 60 59 58 57 55 55 54 54 53 51 50 49 49 49 49 49 50 50 50 50 52 54 56 58 61 66 70 74 76 77 78 80 81 80 79 78 79 80 80 80 80 79 77 75 74 76 78 80 80 80 80 80 80 80 80 80 79 79
123 122 120 118 116 113 110 106 104 102 98 97 96 94 91 90 88 85 81 76 75 76 74 71 69 67 65 64 62 61 61 59 58 57 57 56 55 54 53 52 50 49 49 50 50 51 51 51 52 53 55 57 58 60 62 66 68 70 73 76 78 78 79 80 81 82 82 83 83 82 81 79 78 79 83 86 86 84 83 83 83 83 82 82 82 81
125 123 122 120 118 116 112 108 107 104 101 100 99 97 94 91 88 86 83 80 79 79 78 76 73 70 68 66 63 62 62 62 61 60 59 58 57 57 57 55 53 52 51 51 52 52 52 52 52 53 54 56 57 58 59 60 61 63 66 68 70 73 76 79 81 83 84 85 85 84 84 83 82 83 87 90 90 88 86 86 86 86 84 83 83 84
126 125 123 122 120 118 115 111 108 105 103 102 101 99 94 91 89 86 83 81 81 81 80 79 77 73 70 68 66 65 65 64 63 62 61 60 59 59 59 58 56 55 54 53 53 52 52 53 54 54 54 55 57 58 59 58 57 57 58 60 63 66 70 74 78 81 84 85 86 86 87 86 85 87 91 93 93 91 89 89 89 87 86 85 84 85
128 126 125 123 121 120 118 115 110 107 105 103 101 99 95 91 89 87 84 82 82 82 82 81 79 76 73 71 69 68 67 67 66 64 63 62 61 61 61 60 58 57 56 55 54 53 53 55 56 55 55 56 56 57 58 57 56 56 55 55 57 60 63 67 72 75 79 81 83 85 87 88 90 92 94 94 94 93 91 91 90 89 88 86 86 87
129 129 127 126 124 122 121 119 114 109 105 104 101 98 95 92 89 87 85 83 83 83 83 83 82 79 76 74 72 71 70 69 67 67 66 65 63 63 63 63 62 59 57 56 55 53 54 56 57 57 57 57 56 55 56 56 55 54 54 53 54 57 59 63 66 68 71 73 76 80 84 87 91 94 94 93 93 92 91 91 91 90 89 88 89 91
130 131 130 129 127 124 123 122 118 108 101 101 103 101 96 92 90 88 87 85 85 84 83 84 84 82 79 76 73 72 72 71 70 70 69 67 67 66 66 66 65 61 58 56 54 53 54 56 57 58 58 58 57 55 54 54 53 53 53 53 54 55 57 58 60 63 65 67 70 74 79 84 87 89 89 89 89 89 88 89 90 91 90 89 91 92
128 130 130 128 127 125 124 123 120 111 101 98 99 98 94 90 85 82 84 86 87 87 86 84 85 85 83 81 78 75 75 74 74 73 72 71 69 69 68 67 65 63 60 57 55 55 55 56 57 58 58 58 58 56 54 53 52 51 52 53 54 54 55 56 56 56 58 62 67 71 75 78 80 80 79 80 80 81 82 83 84 85 87 88 88 90
120 124 125 126 126 125 124 122 120 112 103 100 99 94 87 83 77 70 68 70 76 82 85 84 83 84 84 83 82 79 78 78 76 75 74 73 71 70 69 67 65 63 61 58 56 56 56 56 58 59 59 59 58 57 56 54 52 51 52 52 51 51 51 52 51 50 53 59 64 65 66 68 68 68 68 69 70 71 72 73 74 75 78 81 82 84
112 116 119 121 122 122 121 119 114 102 90 89 91 82 70 65 64 62 60 62 66 72 77 78 78 80 83 85 85 83 82 80 78 77 75 74 72 70 68 66 65 63 61 58 57 57 57 57 58 59 60 60 58 57 57 56 54 54 53 52 50 49 47 47 47 48 50 51 52 51 49 48 48 51 54 57 61 63 63 64 65 65 65 68 72 78
103 108 112 114 116 118 117 113 107 96 83 77 75 67 57 53 55 56 57 62 67 69 71 73 73 74 78 82 84 84 83 80 78 77 75 74 72 69 67 66 64 62 60 58 58 57 57 57 58 58 59 60 59 58 58 57 57 57 56 54 52 49 46 44 43 41 40 38 37 36 32 30 32 35 39 43 47 52 55 58 59 60 60 61 65 74
Wind_Direction
246 247 246 245 246 247 249 251 254 257 257 253 253 253 255 258 259 257 256 254 257 267 281 301 306 311 314 297 267 245 216 222 233 228 235 241 242 246 246 240 229 221 208 193 179 170 176 178 177 184 188 184 179 173 167 162 158 157 157 156 153 150 148 145 137 123 105 83 63 49 39 34 31 29 26 25 25 25 24 24 25 26 27 27 26 24
242 242 242 244 246 248 250 251 254 256 255 253 251 250 253 256 256 256 254 250 247 254 265 285 300 307 312 304 278 256 223 219 234 235 246 255 249 241 236 230 217 209 202 186 173 167 172 178 181 185 187 183 178 175 170 164 161 161 162 162 161 159 158 155 147 136 117 89 62 45 35 30 28 25 22 21 20 20 20 20 21 22 23 23 22 21
241 241 242 244 247 248 250 251 253 254 254 253 251 249 250 252 254 254 251 248 244 244 251 265 287 302 309 308 291 262 229 212 226 248 256 252 240 219 209 208 201 196 194 184 172 168 172 180 183 184 184 182 181 178 174 171 167 166 167 169 167 166 166 164 158 149 132 100 58 38 30 26 24 22 19 16 14 14 15 15 16 17 18 18 18 16
243 242 242 243 245 245 246 247 249 251 251 250 250 249 247 247 250 251 249 247 243 239 240 245 260 284 299 303 291 254 233 213 217 246 245 225 199 178 178 184 188 188 186 180 172 167 171 179 182 181 182 183 185 184 182 179 176 173 173 174 173 173 173 171 167 162 147 106 45 26 22 21 21 19 16 14 11 10 9 10 11 11 12 13 13 11
245 244 243 242 242 242 242 243 245 246 247 246 246 247 246 243 244 247 247 246 244 236 233 232 238 255 274 288 271 243 236 220 217 230 214 188 163 155 159 166 172 175 175 172 168 164 169 176 179 180 184 188 191 193 191 186 183 181 179 179 178 177 178 179 176 174 168 121 18 11 12 14 16 15 14 12 9 6 5 6 6 6 7 7 7 6
247 245 243 242 241 240 240 241 242 243 245 245 244 243 243 241 241 243 244 244 242 236 231 227 228 238 252 265 252 239 236 227 217 211 196 177 159 153 154 157 161 165 170 169 165 165 170 177 182 186 191 196 200 204 199 190 186 185 184 182 181 181 184 186 188 193 198 242 339 354 2 7 9 11 10 9 7 4 1 1 1 1 1 1 2 1
246 245 243 242 241 240 240 240 240 240 242 243 241 241 242 242 242 242 242 242 242 237 230 225 222 228 242 249 244 240 238 232 218 205 198 184 171 166 163 164 166 167 173 174 170 173 179 185 189 194 199 204 207 210 203 195 190 189 186 183 182 185 189 194 201 207 222 254 302 337 350 357 1 3 3 3 4 2 358 357 356 355 355 355 356 355
246 245 244 243 244 242 240 239 238 239 239 240 239 241 243 243 242 242 241 241 243 239 230 227 221 218 233 237 237 247 242 234 221 207 205 200 189 184 180 179 178 178 182 184 182 183 190 197 201 202 206 211 215 213 206 201 197 195 190 189 190 192 197 202 210 217 230 251 281 314 335 345 349 354 355 355 358 359 356 352 351 350 349 349 350 349
247 246 245 246 246 243 241 239 239 238 238 240 240 241 243 242 242 243 242 241 244 242 234 233 224 213 225 228 226 245 244 234 224 214 211 209 205 200 194 192 191 191 193 194 195 195 199 207 210 211 213 216 221 218 210 205 202 202 201 202 202 203 205 208 216 224 233 247 268 290 311 327 336 342 345 345 348 352 352 349 347 345 343 344 344 343
248 247 244 247 247 244 244 243 242 239 239 240 241 240 242 242 242 243 242 241 242 242 239 238 230 217 220 224 222 234 240 236 229 223 218 212 212 212 206 204 204 204 204 203 203 205 209 213 214 215 216 219 223 218 211 208 207 208 209 211 212 211 209 212 219 226 234 242 254 269 284 302 317 329 335 337 339 343 347 345 343 341 339 339 340 338
245 244 244 250 251 249 248 244 241 240 240 241 240 240 241 240 240 240 240 239 239 240 241 239 233 223 220 222 224 228 232 233 233 230 224 215 215 217 214 212 213 214 213 210 209 210 214 218 218 216 216 219 221 217 211 210 211 212 214 215 217 217 217 218 223 228 233 240 247 256 266 279 295 312 323 326 329 333 338 339 338 338 335 335 336 335
244 247 250 253 253 250 248 244 240 240 243 243 241 240 240 239 239 239 239 239 236 235 236 234 230 224 222 224 226 226 227 228 230 232 229 222 218 219 220 219 219 219 218 216 214 214 218 223 223 219 216 217 218 216 214 214 216 217 218 220 220 220 222 226 232 235 238 242 249 257 264 271 281 294 307 314 318 324 330 332 333 333 332 332 333 333
248 249 251 252 253 251 249 247 244 243 246 246 244 243 242 240 239 238 238 237 233 229 232 233 228 220 222 229 228 226 226 225 225 229 232 229 225 223 224 225 224 223 221 220 219 218 221 225 226 222 217 217 215 215 217 220 221 220 220 224 225 224 224 228 236 241 245 247 253 262 268 272 278 285 293 301 307 313 321 326 328 329 329 329 330 331
248 247 248 248 250 249 248 250 250 250 250 251 249 247 246 244 241 239 239 237 231 228 231 235 230 218 221 231 231 227 226 225 223 226 232 234 232 230 228 229 228 226 224 223 223 223 224 225 226 223 219 217 214 214 219 222 224 223 223 225 229 231 231 232 237 243 248 252 256 262 268 274 279 284 288 293 299 304 313 318 323 326 326 326 327 328
246 246 247 246 247 248 249 254 255 252 254 255 253 251 250 249 243 236 236 237 233 229 231 235 233 221 222 230 232 229 228 228 225 224 229 234 236 234 232 231 230 228 226 226 226 226 227 227 226 223 222 220 216 216 219 223 226 228 227 229 232 237 239 240 241 245 249 253 256 259 265 272 278 283 287 291 295 299 305 311 317 322 323 324 324 326
242 244 247 246 249 252 252 254 254 252 255 257 256 256 254 248 243 236 235 236 234 230 229 233 233 226 223 229 235 234 231 231 229 225 226 229 232 234 234 233 231 229 228 228 228 228 228 228 226 224 224 224 222 221 221 224 228 231 233 235 237 240 243 245 246 248 252 254 257 261 266 270 276 281 287 291 295 298 302 306 313 317 320 321 321 323
240 243 247 248 251 254 252 253 255 254 258 259 260 262 257 251 246 243 239 238 238 234 231 232 233 230 227 228 234 237 235 233 231 228 226 227 229 230 233 235 232 229 229 230 231 230 228 227 227 226 226 227 227 227 226 226 229 232 235 238 240 242 245 248 250 252 254 258 262 266 268 272 276 281 287 292 296 298 300 305 309 313 317 318 319 320
240 243 247 249 250 253 253 254 256 257 261 263 260 260 260 259 255 248 243 241 238 235 231 231 230 230 228 228 231 234 235 235 233 230 227 227 228 228 229 233 234 231 230 231 232 232 230 228 228 228 228 229 231 233 231 230 231 233 234 237 240 243 245 248 252 254 257 261 264 268 271 274 278 283 288 293 296 298 300 304 307 310 314 316 316 318
242 244 249 249 249 252 254 254 256 259 261 261 259 259 262 266 264 254 246 242 238 233 231 230 228 227 227 227 228 230 232 233 234 232 228 226 227 229 229 231 233 233 232 232 232 231 231 231 231 232 232 233 235 236 236 234 234 234 236 238 241 244 246 248 251 254 257 261 264 267 270 274 278 283 287 290 293 295 299 302 304 308 312 313 314 316
245 245 248 250 249 250 253 254 257 260 260 259 259 262 264 265 266 262 253 247 242 236 234 232 229 228 227 226 227 228 230 232 234 234 232 228 225 228 231 231 233 234 232 233 233 231 230 232 234 235 235 234 235 238 239 238 238 237 237 239 242 244 246 248 251 254 256 259 262 266 269 273 278 282 284 286 288 291 295 298 300 306 310 310 312 313
246 245 247 250 249 249 253 254 255 256 256 256 257 259 262 264 269 270 265 258 249 240 238 236 231 229 229 227 227 228 228 230 233 234 235 234 229 228 231 233 234 235 234 233 235 234 232 232 234 236 236 235 236 237 239 240 240 240 240 240 241 243 246 249 251 253 255 258 261 264 268 273 277 280 281 283 284 287 290 293 298 304 307 308 310 310
247 245 246 249 250 250 250 248 248 249 251 251 253 257 261 266 273 277 277 272 259 245 241 238 231 230 231 229 228 228 228 229 232 233 234 236 237 234 233 233 235 238 237 235 235 237 237 235 235 236 237 238 238 238 239 241 242 242 241 241 242 244 246 249 252 253 255 257 261 264 266 270 274 278 281 283 284 285 287 290 295 301 305 306 307 308
246 245 245 249 251 250 248 246 245 248 251 253 255 259 262 267 275 280 276 269 260 250 245 239 235 235 233 231 230 229 229 228 230 233 233 234 238 239 238 236 235 238 240 239 237 237 239 239 239 239 239 240 240 241 241 242 243 244 243 243 244 246 248 250 252 254 256 258 262 264 265 268 272 277 280 281 283 284 285 288 294 298 302 304 305 307
248 247 247 249 250 250 250 249 248 250 253 256 257 259 263 267 269 268 264 261 258 257 253 245 246 246 238 234 234 231 230 230 229 232 233 232 234 236 238 239 238 238 240 242 241 239 238 239 241 241 242 242 242 242 243 245 246 247 247 246 247 249 251 252 254 255 257 260 263 265 267 269 273 276 279 281 282 284 285 288 292 296 300 302 303 305
248 249 249 248 249 250 251 251 252 253 256 258 258 260 262 262 260 259 258 259 259 262 261 254 258 258 246 238 239 236 233 232 231 230 233 233 233 234 236 239 240 241 241 242 243 242 240 240 240 241 242 243 244 244 244 246 248 249 250 249 250 252 252 253 255 257 259 261 263 265 266 269 272 274 278 280 282 283 285 288 291 295 298 300 301 303
248 249 249 249 249 250 251 252 252 253 254 254 254 255 256 255 253 253 253 255 257 259 261 258 258 262 258 247 243 241 237 236 234 232 232 234 235 235 236 237 239 242 243 244 245 244 242 241 241 242 242 243 244 245 246 247 248 250 251 251 252 253 254 255 256 258 260 262 263 264 266 268 270 273 276 279 281 283 286 288 291 294 296 298 300 301
247 248 250 250 249 248 249 249 250 249 249 249 249 249 251 252 252 250 249 252 257 255 257 257 252 257 264 261 253 246 241 240 239 236 233 234 237 238 238 238 238 240 242 244 246 246 245 243 242 243 243 244 244 245 247 248 249 250 251 252 253 255 256 257 258 259 260 261 263 265 267 269 271 274 276 278 281 284 286 288 291 293 295 297 299 300
247 248 249 249 248 247 248 249 251 252 250 249 250 250 251 252 253 252 250 252 256 254 256 260 254 253 260 265 265 257 247 244 245 242 237 235 236 238 239 239 239 239 240 242 244 246 248 247 246 244 244 245 246 247 248 249 250 252 253 254 255 256 257 258 259 260 261 262 263 265 268 271 273 275 277 279 282 284 286 289 290 292 293 295 297 298
245 246 247 248 247 247 247 249 252 253 252 251 250 250 250 251 252 252 251 251 253 253 254 257 257 255 258 264 270 268 260 254 251 247 242 238 235 236 237 238 239 240 240 241 242 244 246 248 249 248 246 245 246 248 249 250 251 252 253 255 256 257 258 258 259 261 262 263 264 267 269 271 274 275 277 278 280 282 285 288 290 291 292 294 295 295
244 244 245 246 246 245 246 248 250 252 252 251 251 250 249 250 251 251 251 251 252 252 254 257 259 261 261 262 265 267 266 264 258 252 247 241 237 236 236 236 238 239 240 241 242 243 244 246 249 250 249 248 247 248 249 250 250 251 252 254 255 256 257 257 258 259 261 263 264 266 268 270 272 274 275 277 279 281 284 287 288 290 291 291 292 292
242 242 243 245 244 244 245 247 248 249 250 250 250 249 248 249 250 251 252 253 254 255 257 259 260 261 260 259 259 259 261 263 263 260 254 247 241 239 238 237 237 239 240 242 243 243 244 246 248 249 249 250 249 249 249 250 250 250 251 252 253 254 255 256 257 258 260 262 264 265 266 268 270 272 275 277 278 280 283 285 286 287 288 287 288 289
241 242 242 243 243 243 244 245 246 247 247 247 247 247 249 250 251 252 253 254 254 255 255 256 258 259 257 255 254 255 256 259 262 263 261 256 250 245 241 239 238 239 240 241 242 243 244 246 248 249 250 250 250 250 250 250 250 250 251 252 252 253 254 256 257 257 259 261 262 264 265 266 269 272 275 277 278 279 281 283 284 284 284 284 285 288
241 241 242 242 241 242 243 244 245 246 246 246 247 250 252 252 252 253 253 253 254 255 254 253 255 256 254 254 253 254 256 257 258 260 262 262 259 254 248 242 239 240 241 241 241 242 242 243 245 247 248 249 249 249 249 250 250 251 251 251 252 253 255 257 258 258 259 261 262 263 265 267 269 271 274 275 276 278 279 281 282 282 283 283 284 287
241 241 242 242 241 241 243 244 244 245 247 249 251 252 251 251 251 251 252 252 253 254 253 254 256 256 256 256 254 253 253 254 256 257 258 260 259 257 254 247 240 239 241 241 241 241 241 241 242 243 245 247 249 249 249 250 251 251 251 252 253 254 255 256 257 258 259 261 262 264 266 268 269 270 271 273 275 276 277 278 279 281 282 282 284 287
243 242 242 242 241 240 242 244 244 245 248 250 251 250 250 250 249 249 249 250 251 253 254 256 258 259 259 258 256 254 253 254 256 256 254 255 256 256 256 253 247 242 241 242 242 241 241 241 242 242 243 244 246 248 249 250 251 252 253 253 252 253 253 254 256 258 259 260 262 264 265 266 267 268 269 271 273 274 275 276 278 280 281 281 283 286
245 244 243 243 242 240 242 243 244 245 247 247 248 249 249 249 248 249 249 251 252 254 255 256 257 258 258 258 258 257 255 254 255 254 252 253 255 256 255 255 252 248 245 244 243 242 242 242 242 242 242 242 244 245 247 249 250 252 253 253 253 252 252 253 254 256 258 259 261 262 263 264 265 267 268 270 271 273 275 276 277 278 279 280 282 284
245 245 244 243 242 241 242 244 244 244 244 244 245 247 248 249 250 250 250 250 250 250 251 253 254 255 256 256 257 258 257 255 253 251 250 251 254 255 255 255 254 252 249 247 246 244 243 242 241 242 242 243 244 244 245 247 249 250 252 253 254 254 253 253 254 256 257 258 260 261 262 263 264 265 267 269 270 272 274 275 275 276 278 279 281 282
245 245 244 244 243 242 242 243 243 243 242 242 244 245 248 250 251 251 250 249 248 249 250 251 252 254 256 256 256 257 257 256 252 249 247 247 251 254 256 256 255 254 253 251 249 248 247 246 244 243 243 244 244 245 245 246 247 249 251 252 254 255 255 256 256 257 257 258 259 260 261 263 264 265 267 268 270 272 273 274 274 275 277 278 280 281
244 244 244 244 243 242 242 243 243 243 242 242 243 244 245 248 250 251 251 251 251 252 253 253 253 254 256 257 256 256 257 257 254 251 248 247 249 252 254 255 256 256 255 254 253 251 251 250 249 247 246 246 245 245 244 245 246 247 249 251 253 254 256 257 258 259 259 259 259 260 261 263 264 266 267 268 269 270 271 272 273 275 276 278 280 281
243 243 244 244 244 243 243 243 243 243 242 242 243 243 244 246 248 250 252 253 254 255 255 254 253 254 255 256 256 255 256 256 255 254 252 251 250 251 252 253 254 255 255 256 256 255 254 253 252 251 249 248 248 247 246 245 246 247 248 249 251 253 255 256 257 258 259 260 261 261 262 263 264 266 268 268 268 269 270 271 273 275 277 278 279 280
242 243 243 243 244 243 243 243 243 243 243 243 243 243 243 243 245 249 252 253 254 254 253 252 252 252 253 253 253 253 255 256 255 255 255 255 254 254 253 252 253 254 255 256 256 256 255 254 253 253 252 251 251 251 250 248 247 248 248 249 250 251 253 254 256 257 259 260 262 263 263 264 265 266 267 268 268 268 269 271 273 274 275 277 278 280
241 242 243 243 244 243 243 243 243 244 244 244 244 243 243 243 244 247 250 252 252 252 252 251 250 250 251 251 251 252 254 255 256 256 256 256 256 257 257 256 255 255 255 254 255 255 255 255 254 253 253 252 253 254 254 253 251 250 249 249 250 251 252 253 254 256 258 260 261 263 264 265 265 266 267 268 268 269 270 271 272 273 274 276 278 279
240 241 242 243 244 244 243 243 243 244 244 245 245 245 244 245 245 246 248 249 251 252 252 251 251 250 250 250 250 250 252 254 255 256 256 257 257 259 260 260 260 260 259 258 257 256 255 255 254 253 252 252 252 253 254 255 255 254 253 252 252 251 251 252 253 255 256 258 260 261 262 263 264 265 266 266 267 268 269 269 270 272 274 275 277 278
239 240 241 242 243 244 244 243 243 243 244 244 245 246 246 246 246 247 247 248 249 251 252 252 251 250 249 249 248 248 250 252 254 255 256 257 258 259 261 262 263 263 264 265 263 262 260 258 255 254 253 252 251 251 251 253 255 255 256 255 255 253 252 252 252 253 254 255 257 259 260 261 262 262 262 263 265 266 267 268 269 271 272 274 276 277
237 238 240 241 242 243 244 244 242 242 242 243 244 246 246 246 247 247 247 247 248 249 251 251 251 251 249 249 249 249 250 251 253 255 257 257 258 259 260 261 262 263 264 266 267 267 267 264 260 257 255 254 252 251 251 251 252 253 254 255 255 255 253 252 251 252 253 254 255 257 258 259 259 259 259 261 263 265 266 268 269 271 273 274 275 276
235 236 238 239 240 241 243 244 243 241 241 242 243 244 245 246 247 247 248 247 247 248 249 250 251 251 250 249 249 250 251 252 253 254 256 257 257 257 259 260 260 261 262 263 265 267 268 267 264 261 258 256 255 254 253 252 252 253 253 254 254 254 253 252 252 252 252 253 253 254 255 256 257 258 259 261 263 265 267 269 270 272 273 274 274 275
232 234 235 237 238 239 241 243 243 243 241 241 242 243 244 245 246 248 249 249 248 248 249 250 250 250 250 250 249 249 250 251 252 252 253 254 255 255 256 258 259 260 260 261 263 265 266 265 264 263 261 260 258 257 255 254 253 253 253 253 254 254 254 254 253 252 253 253 253 253 254 255 257 258 261 263 265 267 268 269 271 272 273 273 274 275
229 231 233 234 236 237 238 240 242 242 241 240 240 240 241 242 245 249 252 253 252 250 249 250 250 250 249 248 248 248 249 249 250 251 252 253 253 254 255 256 258 259 259 260 262 264 264 263 263 263 262 262 262 261 260 259 256 254 253 253 254 255 256 256 255 253 251 251 251 252 253 255 258 260 263 265 267 268 269 270 272 273 274 275 275 275
226 228 229 231 233 235 236 237 239 239 240 240 240 239 239 240 241 243 246 248 250 249 248 248 248 248 247 247 246 246 246 247 248 249 251 251 252 253 254 255 256 257 257 260 262 262 262 262 262 262 263 262 263 263 264 263 261 258 256 255 256 257 258 258 258 255 250 249 250 252 255 259 263 265 266 267 268 268 269 269 270 272 274 275 275 274
223 224 226 227 229 231 233 235 235 234 234 237 238 235 233 233 232 231 232 237 243 247 246 244 243 243 243 243 243 244 245 246 247 248 250 251 252 253 253 254 254 255 257 258 260 260 260 260 260 261 261 261 262 262 263 264 264 263 261 261 260 260 260 259 257 254 253 253 255 257 260 264 267 269 270 270 269 268 268 268 269 271 273 274 274 273
221 222 223 223 225 228 230 231 231 229 226 228 229 224 215 213 215 219 228 235 239 243 244 242 241 239 238 239 240 242 244 245 247 249 251 252 253 253 252 252 253 254 256 256 257 257 257 257 257 257 258 258 259 260 260 261 262 262 262 263 264 265 264 258 254 255 256 254 252 250 252 258 268 278 283 284 281 279 277 275 273 272 272 273 272 270
Height
10929 10931 10929 10928 10930 10933 10936 10938 10938 10941 10946 10948 10949 10951 10951 10951 10951 10952 10954 10955 10955 10955 10955 10955 10952 10951 10950 10949 10949 10949 10950 10951 10951 10951 10951 10952 10952 10953 10954 10954 10955 10956 10957 10958 10959 10961 10963 10964 10966 10968 10971 10973 10974 10975 10976 10976 10977 10978 10979 10979 10980 10981 10981 10982 10982 10982 10983 10983 10984 10984 10984 10984 10983 10983 10982 10982 10981 10981 10981 10980 10979 10978 10977 10976 10975 10974
10922 10922 10919 10921 10926 10930 10933 10935 10935 10937 10942 10944 10945 10947 10948 10948 10948 10949 10951 10952 10954 10954 10955 10955 10953 10951 10950 10949 10948 10949 10950 10950 10950 10951 10951 10951 10951 10952 10953 10953 10954 10955 10956 10957 10958 10960 10962 10964 10966 10969 10971 10973 10974 10975 10976 10977 10977 10978 10979 10979 10980 10980 10981 10982 10982 10982 10983 10983 10984 10984 10984 10984 10983 10983 10982 10982 10981 10981 10981 10980 10979 10978 10977 10977 10976 10975
10914 10912 10914 10919 10924 10927 10930 10931 10931 10933 10937 10940 10941 10943 10944 10943 10945 10946 10947 10949 10952 10953 10954 10954 10953 10951 10949 10949 10948 10949 10950 10950 10950 10950 10950 10950 10950 10951 10952 10953 10954 10955 10956 10957 10958 10960 10962 10964 10967 10969 10971 10973 10974 10975 10976 10977 10978 10978 10979 10979 10980 10981 10981 10981 10982 10982 10983 10983 10983 10983 10983 10983 10983 10983 10983 10982 10982 10981 10981 10980 10979 10978 10978 10977 10976 10975
10905 10906 10911 10916 10919 10921 10924 10925 10926 10928 10933 10935 10936 10938 10938 10939 10941 10942 10944 10947 10950 10952 10953 10953 10953 10951 10949 10949 10949 10949 10950 10950 10950 10950 10950 10950 10950 10950 10951 10952 10953 10954 10956 10957 10959 10960 10962 10965 10967 10970 10972 10973 10974 10975 10976 10977 10978 10979 10979 10980 10980 10981 10981 10982 10982 10982 10982 10983 10983 10983 10983 10983 10983 10983 10983 10982 10982 10981 10981 10980 10979 10979 10978 10977 10977 10976
10899 10902 10908 10910 10912 10914 10917 10919 10921 10923 10926 10929 10931 10931 10931 10935 10937 10938 10941 10945 10947 10950 10951 10952 10952 10951 10950 10950 10950 10950 10950 10950 10950 10950 10951 10951 10950 10950 10951 10952 10953 10955 10956 10957 10959 10960 10963 10965 10968 10970 10972 10973 10974 10975 10976 10977 10978 10979 10980 10980 10981 10981 10982 10982 10982 10982 10982 10983 10983 10983 10983 10983 10983 10983 10982 10982 10981 10981 10980 10980 10980 10979 10979 10978 10977 10977
10895 10899 10903 10903 10905 10907 10910 10913 10916 10917 10920 10924 10926 10923 10923 10930 10933 10935 10939 10941 10944 10946 10948 10950 10951 10951 10950 10950 10949 10949 10950 10950 10950 10951 10951 10952 10951 10951 10952 10953 10954 10955 10957 10958 10959 10961 10963 10966 10968 10970 10971 10972 10974 10976 10977 10978 10978 10979 10980 10980 10981 10981 10982 10982 10982 10982 10982 10982 10982 10982 10982 10982 10982 10982 10982 10982 10982 10981 10981 10980 10980 10980 10979 10979 10978 10978
10891 10895 10896 10896 10899 10902 10905 10908 10909 10911 10915 10918 10917 10914 10918 10927 10930 10932 10935 10938 10941 10943 10945 10949 10950 10950 10950 10949 10949 10949 10949 10949 10950 10950 10951 10952 10952 10952 10953 10954 10955 10956 10957 10958 10959 10961 10964 10966 10968 10969 10971 10973 10974 10976 10977 10978 10978 10979 10979 10980 10981 10981 10981 10981 10981 10982 10982 10982 10982 10982 10982 10982 10982 10981 10981 10981 10982 10981 10981 10981 10981 10980 10980 10979 10979 10978
10888 10890 10890 10892 10896 10898 10899 10900 10901 10906 10911 10908 10906 10910 10917 10923 10926 10928 10931 10935 10937 10940 10944 10947 10948 10950 10949 10948 10949 10948 10948 10948 10948 10949 10950 10951 10951 10952 10953 10954 10955 10956 10958 10959 10960 10961 10964 10966 10967 10969 10970 10972 10974 10976 10977 10977 10978 10978 10979 10980 10980 10980 10981 10981 10981 10981 10981 10981 10981 10981 10981 10981 10981 10981 10981 10981 10981 10981 10981 10981 10981 10980 10980 10980 10979 10978
10885 10885 10887 10890 10891 10891 10891 10893 10896 10903 10904 10897 10900 10909 10913 10917 10922 10923 10928 10933 10934 10938 10943 10945 10946 10948 10947 10947 10948 10947 10945 10945 10946 10948 10949 10949 10950 10951 10952 10954 10955 10956 10957 10959 10960 10961 10963 10965 10967 10968 10969 10971 10973 10974 10975 10976 10977 10977 10978 10978 10979 10979 10980 10980 10980 10980 10980 10980 10980 10980 10980 10980 10980 10980 10980 10980 10980 10981 10981 10981 10981 10980 10980 10979 10979 10978
10881 10881 10885 10886 10884 10885 10887 10890 10894 10898 10895 10889 10898 10907 10907 10912 10918 10919 10925 10930 10931 10937 10941 10941 10942 10945 10944 10945 10946 10944 10942 10943 10945 10946 10946 10948 10949 10950 10951 10952 10954 10956 10957 10958 10959 10961 10963 10964 10966 10967 10968 10970 10971 10972 10973 10974 10975 10976 10976 10976 10977 10977 10978 10978 10979 10979 10979 10979 10979 10979 10979 10979 10980 10980 10980 10980 10980 10980 10980 10980 10980 10980 10979 10979 10978 10977
10877 10879 10881 10880 10880 10882 10884 10887 10888 10889 10886 10886 10896 10901 10901 10907 10911 10914 10921 10925 10929 10937 10938 10936 10937 10940 10941 10942 10941 10940 10941 10942 10943 10943 10944 10946 10947 10948 10949 10951 10953 10954 10956 10957 10958 10960 10961 10963 10964 10965 10966 10967 10968 10969 10970 10971 10972 10973 10974 10975 10975 10976 10976 10977 10977 10977 10978 10978 10978 10978 10978 10978 10978 10979 10979 10979 10979 10979 10979 10980 10979 10979 10979 10978 10978 10977
10875 10876 10876 10875 10877 10879 10879 10881 10882 10883 10882 10884 10891 10893 10895 10900 10904 10909 10916 10920 10929 10934 10931 10928 10931 10935 10938 10937 10936 10938 10939 10941 10941 10941 10942 10943 10945 10946 10947 10949 10951 10952 10954 10955 10956 10958 10959 10961 10962 10963 10964 10965 10966 10967 10968 10969 10970 10971 10972 10973 10974 10974 10975 10975 10975 10976 10976 10977 10977 10977 10977 10977 10977 10977 10978 10978 10978 10978 10978 10978 10978 10978 10978 10977 10976 10975
10872 10871 10871 10872 10873 10873 10875 10876 10878 10879 10879 10882 10886 10888 10892 10895 10898 10906 10911 10915 10923 10926 10921 10922 10927 10933 10934 10932 10933 10936 10936 10938 10939 10940 10940 10941 10943 10945 10946 10947 10949 10950 10952 10953 10954 10955 10957 10958 10960 10961 10962 10962 10963 10965 10966 10967 10968 10969 10970 10971 10972 10973 10973 10974 10974 10974 10975 10976 10976 10976 10976 10976 10976 10976 10976 10976 10977 10977 10977 10977 10977 10977 10976 10975 10975 10974
10866 10866 10867 10867 10867 10868 10871 10872 10874 10876 10877 10880 10882 10884 10888 10889 10894 10902 10904 10907 10914 10917 10915 10917 10925 10932 10933 10929 10930 10932 10932 10935 10937 10939 10939 10940 10941 10943 10944 10946 10947 10948 10949 10950 10952 10953 10954 10956 10957 10959 10960 10960 10961 10963 10964 10965 10966 10966 10968 10969 10970 10971 10972 10972 10973 10973 10974 10974 10975 10975 10975 10975 10975 10975 10975 10975 10975 10975 10975 10975 10975 10975 10974 10974 10973 10972
10860 10861 10861 10861 10861 10864 10868 10868 10869 10872 10874 10877 10878 10880 10884 10884 10888 10894 10895 10898 10905 10909 10911 10915 10924 10932 10931 10925 10924 10927 10930 10933 10935 10937 10938 10938 10939 10940 10942 10943 10944 10945 10946 10948 10949 10950 10951 10953 10955 10957 10958 10958 10959 10960 10961 10962 10963 10964 10965 10966 10968 10969 10970 10971 10971 10972 10972 10973 10973 10973 10973 10974 10974 10974 10974 10974 10974 10974 10974 10974 10974 10973 10973 10972 10971 10970
10854 10856 10853 10855 10859 10862 10864 10864 10865 10869 10871 10872 10875 10878 10878 10876 10879 10885 10888 10891 10896 10902 10908 10913 10920 10926 10926 10922 10921 10925 10929 10930 10932 10934 10935 10936 10936 10937 10938 10939 10940 10941 10943 10945 10946 10948 10949 10951 10953 10955 10955 10956 10957 10958 10959 10960 10961 10962 10963 10964 10965 10966 10967 10968 10969 10970 10970 10971 10970 10971 10971 10972 10972 10972 10972 10972 10972 10972 10972 10972 10972 10971 10971 10970 10969 10968
10850 10849 10847 10852 10857 10858 10859 10860 10862 10866 10867 10869 10873 10873 10870 10870 10876 10883 10886 10887 10891 10899 10907 10911 10914 10919 10921 10920 10920 10922 10925 10926 10928 10930 10932 10933 10934 10935 10935 10935 10936 10938 10940 10942 10944 10945 10947 10949 10950 10952 10952 10953 10954 10955 10956 10958 10959 10960 10961 10962 10963 10964 10965 10966 10967 10967 10968 10968 10969 10969 10969 10970 10970 10971 10971 10971 10971 10970 10970 10970 10969 10969 10968 10967 10966 10965
10844 10843 10843 10849 10853 10852 10854 10857 10860 10863 10864 10866 10869 10866 10865 10869 10875 10878 10881 10883 10887 10895 10901 10903 10905 10910 10915 10917 10916 10917 10919 10921 10922 10925 10927 10929 10930 10932 10931 10931 10932 10935 10938 10940 10941 10943 10945 10947 10948 10949 10949 10950 10951 10953 10954 10956 10957 10958 10958 10959 10960 10961 10962 10963 10964 10965 10965 10966 10966 10967 10967 10967 10968 10968 10969 10969 10968 10968 10968 10968 10967 10966 10966 10965 10964 10963
10838 10839 10840 10844 10847 10846 10850 10855 10858 10860 10861 10862 10862 10861 10864 10868 10870 10873 10876 10879 10882 10887 10891 10893 10896 10903 10909 10912 10910 10910 10912 10914 10915 10918 10921 10924 10926 10926 10927 10928 10929 10932 10935 10936 10938 10940 10942 10944 10945 10946 10947 10948 10949 10950 10952 10953 10954 10955 10956 10957 10958 10959 10959 10960 10961 10962 10962 10963 10964 10964 10965 10965 10965 10966 10966 10966 10966 10966 10965 10965 10964 10964 10963 10962 10961 10960
10832 10835 10836 10837 10841 10842 10846 10853 10856 10855 10856 10856 10857 10859 10862 10864 10865 10869 10873 10876 10878 10882 10885 10888 10893 10899 10903 10903 10902 10903 10905 10907 10909 10912 10915 10917 10920 10921 10922 10924 10926 10928 10931 10932 10934 10936 10938 10940 10941 10942 10944 10945 10946 10947 10949 10950 10950 10952 10953 10954 10955 10956 10956 10957 10958 10959 10960 10960 10961 10961 10962 10962 10962 10963 10963 10964 10963 10963 10963 10962 10962 10961 10961 10960 10958 10957
10824 10830 10832 10830 10834 10839 10844 10850 10851 10849 10850 10852 10854 10856 10858 10860 10862 10865 10870 10873 10875 10878 10880 10883 10889 10892 10892 10892 10894 10896 10899 10902 10905 10907 10910 10912 10914 10916 10918 10920 10922 10924 10926 10928 10930 10932 10934 10936 10938 10939 10940 10941 10943 10944 10945 10946 10947 10949 10950 10951 10952 10953 10953 10954 10955 10956 10957 10957 10958 10958 10959 10959 10959 10960 10960 10960 10960 10960 10960 10959 10959 10958 10958 10957 10956 10954
10816 10823 10825 10824 10829 10837 10840 10842 10843 10842 10844 10848 10851 10853 10854 10856 10859 10862 10866 10868 10869 10873 10875 10877 10883 10883 10880 10883 10887 10890 10893 10898 10900 10902 10906 10908 10910 10912 10914 10917 10919 10920 10921 10924 10926 10928 10930 10932 10934 10935 10937 10938 10940 10941 10942 10942 10944 10945 10946 10948 10949 10950 10950 10951 10952 10953 10953 10954 10955 10955 10956 10956 10956 10956 10957 10957 10957 10957 10956 10956 10955 10955 10954 10953 10953 10951
10806 10813 10820 10821 10825 10830 10831 10833 10836 10838 10840 10844 10848 10849 10851 10853 10856 10859 10862 10862 10864 10868 10870 10874 10877 10873 10871 10875 10880 10883 10888 10893 10896 10899 10902 10906 10907 10908 10910 10912 10915 10916 10917 10920 10923 10925 10927 10928 10930 10932 10934 10935 10936 10937 10938 10939 10940 10942 10943 10945 10945 10946 10947 10948 10949 10949 10950 10950 10951 10952 10952 10953 10953 10953 10954 10954 10953 10953 10953 10952 10951 10951 10951 10950 10949 10948
10798 10808 10816 10817 10818 10821 10823 10826 10831 10834 10836 10840 10844 10846 10847 10850 10852 10854 10855 10856 10860 10864 10867 10870 10870 10865 10865 10871 10874 10878 10883 10887 10891 10895 10898 10901 10903 10903 10905 10907 10910 10912 10914 10916 10918 10921 10923 10925 10927 10928 10930 10931 10932 10934 10935 10936 10937 10938 10940 10941 10942 10942 10944 10945 10945 10945 10946 10947 10948 10948 10949 10949 10950 10950 10950 10950 10950 10950 10949 10949 10948 10947 10947 10946 10945 10944
10794 10802 10804 10807 10811 10814 10817 10821 10827 10831 10832 10835 10839 10841 10843 10844 10846 10848 10850 10852 10857 10861 10862 10866 10866 10860 10861 10867 10869 10872 10878 10881 10885 10889 10892 10894 10897 10899 10901 10903 10906 10908 10910 10912 10914 10916 10920 10922 10923 10924 10926 10928 10929 10931 10932 10933 10934 10935 10936 10937 10938 10939 10941 10942 10942 10942 10942 10943 10944 10944 10945 10945 10946 10946 10946 10946 10946 10946 10945 10945 10944 10944 10943 10942 10941 10940
10787 10790 10792 10799 10805 10808 10812 10815 10819 10820 10821 10825 10830 10833 10835 10837 10839 10843 10845 10849 10855 10857 10858 10862 10862 10857 10857 10862 10865 10868 10872 10875 10878 10882 10887 10889 10892 10895 10898 10901 10903 10905 10907 10908 10909 10911 10915 10917 10918 10920 10922 10924 10925 10927 10928 10929 10930 10931 10932 10933 10934 10936 10937 10938 10939 10939 10939 10940 10940 10940 10941 10941 10942 10942 10942 10942 10941 10941 10941 10941 10940 10940 10939 10938 10937 10935
10777 10781 10783 10789 10796 10801 10805 10806 10805 10806 10810 10818 10823 10825 10827 10830 10833 10837 10841 10847 10851 10852 10854 10858 10858 10855 10854 10855 10858 10863 10867 10870 10871 10876 10883 10887 10888 10891 10894 10897 10900 10901 10903 10904 10905 10906 10909 10912 10914 10916 10917 10919 10921 10922 10923 10925 10926 10927 10928 10929 10930 10931 10933 10934 10934 10935 10935 10936 10936 10936 10937 10937 10937 10938 10938 10938 10937 10937 10936 10936 10936 10935 10934 10933 10932 10930
10767 10773 10774 10778 10786 10794 10797 10797 10796 10798 10805 10812 10815 10817 10821 10823 10826 10831 10838 10844 10845 10847 10852 10853 10852 10854 10853 10851 10853 10857 10862 10865 10866 10870 10877 10882 10884 10886 10888 10891 10894 10896 10898 10899 10900 10902 10904 10905 10907 10910 10913 10914 10915 10917 10918 10919 10921 10922 10923 10924 10925 10927 10928 10929 10930 10930 10931 10932 10932 10932 10933 10933 10933 10933 10933 10933 10932 10932 10931 10931 10931 10930 10930 10928 10926 10925
10756 10763 10764 10767 10777 10786 10790 10790 10790 10791 10797 10803 10806 10810 10813 10815 10819 10827 10833 10837 10838 10843 10847 10846 10846 10852 10853 10850 10851 10852 10854 10858 10861 10864 10868 10872 10875 10878 10880 10883 10886 10888 10890 10892 10894 10896 10898 10898 10900 10903 10907 10909 10911 10912 10913 10914 10915 10917 10918 10919 10920 10922 10923 10925 10926 10926 10926 10927 10927 10928 10929 10929 10928 10928 10928 10928 10927 10926 10926 10926 10926 10925 10924 10922 10920 10919
10745 10752 10754 10757 10769 10778 10781 10782 10782 10782 10786 10791 10796 10801 10805 10808 10814 10821 10826 10829 10833 10838 10841 10840 10843 10849 10851 10850 10849 10847 10847 10849 10852 10856 10859 10862 10866 10869 10872 10876 10879 10880 10882 10884 10887 10890 10891 10892 10893 10896 10899 10903 10906 10907 10908 10908 10909 10911 10912 10914 10915 10917 10918 10919 10921 10921 10921 10921 10922 10924 10925 10924 10923 10923 10923 10922 10921 10921 10921 10920 10920 10920 10918 10916 10914 10913
10735 10742 10743 10749 10760 10768 10771 10773 10771 10771 10776 10780 10784 10791 10797 10802 10809 10814 10819 10823 10827 10832 10835 10836 10840 10844 10846 10846 10846 10843 10841 10842 10844 10848 10852 10856 10860 10863 10866 10870 10874 10875 10876 10878 10880 10883 10885 10886 10887 10889 10893 10896 10899 10900 10901 10902 10903 10905 10907 10908 10910 10911 10912 10914 10916 10917 10917 10916 10917 10919 10920 10919 10918 10918 10917 10917 10916 10915 10915 10915 10914 10913 10911 10909 10907 10907
10725 10731 10733 10739 10749 10758 10762 10760 10758 10760 10763 10765 10773 10785 10794 10800 10805 10808 10811 10815 10821 10825 10827 10832 10837 10839 10839 10839 10839 10838 10837 10839 10840 10841 10845 10850 10854 10858 10861 10864 10868 10870 10870 10871 10874 10877 10880 10881 10882 10884 10886 10889 10891 10892 10893 10894 10895 10898 10900 10901 10903 10904 10906 10909 10910 10911 10911 10910 10911 10913 10913 10913 10913 10912 10911 10910 10909 10909 10909 10909 10908 10906 10904 10902 10901 10901
10712 10719 10723 10727 10738 10750 10750 10745 10748 10748 10744 10753 10775 10790 10793 10795 10798 10800 10801 10807 10813 10816 10821 10828 10832 10832 10830 10831 10832 10832 10833 10835 10836 10836 10840 10845 10848 10851 10854 10857 10860 10862 10861 10863 10866 10869 10872 10874 10875 10877 10878 10880 10881 10883 10884 10885 10887 10890 10892 10893 10895 10898 10901 10903 10902 10904 10904 10904 10905 10906 10906 10907 10908 10907 10905 10903 10903 10902 10902 10902 10900 10898 10897 10895 10895 10896
10697 10706 10710 10713 10728 10741 10735 10732 10737 10732 10732 10758 10784 10786 10782 10785 10788 10789 10791 10798 10804 10809 10815 10821 10823 10823 10823 10824 10825 10825 10827 10831 10833 10834 10836 10838 10840 10843 10845 10848 10852 10853 10853 10854 10856 10859 10861 10864 10866 10869 10871 10872 10873 10875 10876 10878 10880 10882 10883 10886 10889 10893 10895 10895 10894 10896 10897 10898 10899 10899 10900 10901 10901 10900 10898 10896 10896 10896 10895 10894 10893 10892 10891 10890 10889 10889
10680 10691 10695 10699 10716 10728 10722 10719 10722 10723 10739 10766 10774 10768 10770 10773 10773 10775 10781 10789 10796 10803 10810 10813 10814 10816 10817 10817 10817 10819 10822 10826 10828 10829 10830 10831 10833 10835 10837 10840 10843 10846 10846 10846 10847 10850 10852 10855 10858 10861 10864 10865 10866 10867 10869 10871 10873 10874 10875 10878 10882 10885 10886 10887 10887 10889 10890 10891 10892 10892 10893 10893 10893 10892 10891 10890 10889 10888 10887 10887 10887 10887 10885 10883 10882 10882
10662 10672 10679 10686 10701 10711 10709 10708 10712 10724 10744 10756 10753 10753 10756 10755 10757 10766 10775 10783 10792 10798 10803 10806 10807 10809 10810 10810 10812 10814 10816 10819 10819 10821 10825 10827 10828 10828 10830 10833 10835 10838 10840 10840 10841 10842 10843 10845 10848 10850 10853 10855 10857 10860 10864 10865 10864 10865 10867 10869 10873 10876 10877 10879 10881 10883 10883 10883 10884 10884 10885 10885 10885 10885 10884 10883 10882 10881 10881 10881 10880 10879 10877 10876 10876 10875
10645 10653 10664 10673 10684 10695 10698 10698 10704 10720 10736 10739 10738 10742 10742 10741 10750 10760 10766 10775 10784 10788 10794 10799 10799 10800 10802 10804 10806 10808 10809 10810 10812 10815 10820 10822 10822 10822 10823 10825 10828 10831 10833 10834 10835 10835 10835 10837 10839 10841 10843 10846 10849 10854 10857 10858 10857 10857 10859 10861 10864 10866 10869 10872 10875 10876 10876 10876 10876 10876 10876 10876 10877 10877 10876 10876 10875 10875 10875 10873 10871 10870 10870 10869 10868 10867
10628 10636 10648 10657 10668 10680 10684 10685 10693 10708 10721 10726 10728 10732 10733 10735 10742 10748 10754 10764 10774 10782 10789 10793 10793 10793 10795 10797 10800 10802 10802 10803 10805 10810 10814 10815 10816 10817 10817 10818 10820 10823 10826 10827 10829 10829 10829 10830 10832 10834 10836 10838 10841 10846 10848 10849 10849 10850 10852 10854 10856 10858 10861 10866 10868 10868 10868 10869 10868 10867 10868 10868 10869 10871 10870 10869 10870 10869 10867 10864 10863 10862 10861 10861 10861 10859
10611 10621 10630 10638 10650 10663 10668 10673 10684 10697 10710 10717 10718 10722 10728 10730 10733 10738 10743 10754 10769 10780 10785 10786 10786 10787 10787 10789 10793 10795 10796 10797 10799 10803 10805 10807 10809 10811 10812 10813 10815 10816 10818 10820 10821 10823 10824 10824 10825 10827 10828 10830 10832 10834 10836 10838 10840 10842 10846 10849 10849 10850 10854 10859 10861 10860 10859 10859 10859 10859 10861 10862 10863 10864 10863 10862 10863 10862 10858 10856 10854 10854 10854 10854 10853 10852
10596 10605 10612 10620 10634 10646 10654 10664 10675 10687 10699 10705 10706 10713 10722 10726 10726 10727 10734 10751 10769 10775 10776 10778 10779 10779 10780 10782 10784 10787 10789 10791 10793 10795 10797 10799 10801 10803 10806 10808 10809 10811 10812 10813 10815 10817 10818 10819 10819 10819 10821 10822 10822 10822 10825 10829 10832 10835 10840 10842 10842 10845 10849 10852 10851 10850 10849 10849 10849 10851 10854 10856 10857 10856 10854 10853 10853 10852 10850 10848 10847 10847 10847 10847 10845 10844
10580 10588 10595 10606 10619 10629 10640 10653 10663 10673 10685 10692 10696 10704 10713 10717 10719 10720 10731 10751 10762 10761 10764 10768 10769 10769 10771 10773 10775 10779 10781 10784 10786 10787 10789 10790 10793 10795 10798 10801 10803 10805 10807 10808 10808 10810 10812 10813 10813 10813 10813 10815 10814 10814 10817 10821 10825 10828 10831 10833 10835 10840 10843 10843 10841 10840 10840 10841 10841 10843 10846 10848 10850 10849 10845 10842 10842 10842 10842 10841 10841 10840 10839 10838 10838 10838
10565 10573 10581 10592 10603 10612 10627 10642 10650 10659 10673 10680 10685 10693 10701 10708 10715 10720 10730 10743 10747 10747 10753 10757 10758 10761 10763 10764 10767 10771 10773 10776 10778 10779 10781 10783 10785 10787 10790 10793 10796 10797 10799 10801 10802 10803 10805 10806 10807 10807 10807 10808 10809 10809 10809 10812 10816 10820 10822 10824 10829 10832 10834 10834 10833 10832 10833 10833 10833 10835 10837 10839 10841 10840 10836 10831 10830 10832 10834 10834 10833 10832 10832 10832 10831 10830
10552 10561 10568 10578 10588 10598 10614 10630 10638 10648 10662 10668 10671 10680 10692 10702 10709 10716 10724 10733 10735 10737 10741 10745 10749 10753 10754 10756 10760 10762 10765 10768 10770 10771 10774 10776 10777 10779 10781 10784 10787 10788 10790 10792 10794 10797 10798 10799 10800 10801 10801 10801 10802 10803 10803 10804 10807 10810 10812 10816 10820 10822 10822 10824 10825 10825 10824 10823 10824 10826 10827 10829 10831 10831 10826 10822 10821 10823 10825 10825 10825 10825 10825 10825 10824 10822
10541 10550 10556 10566 10576 10585 10598 10613 10626 10639 10650 10656 10660 10669 10683 10693 10700 10708 10718 10724 10726 10727 10730 10734 10738 10742 10745 10748 10751 10753 10756 10759 10761 10763 10766 10768 10770 10772 10773 10775 10778 10780 10781 10783 10785 10787 10790 10791 10792 10793 10793 10794 10795 10796 10797 10799 10800 10802 10805 10807 10808 10809 10812 10814 10814 10814 10814 10815 10816 10817 10818 10819 10820 10819 10815 10813 10812 10814 10816 10816 10816 10817 10818 10818 10817 10816
10531 10539 10547 10557 10567 10574 10582 10595 10612 10627 10638 10645 10652 10661 10674 10684 10691 10699 10707 10713 10716 10718 10720 10723 10727 10732 10736 10739 10742 10745 10748 10750 10753 10756 10758 10760 10763 10764 10765 10768 10770 10772 10773 10775 10776 10778 10779 10780 10782 10784 10785 10786 10787 10788 10789 10792 10794 10796 10798 10799 10799 10800 10802 10803 10803 10804 10805 10808 10809 10809 10808 10808 10807 10805 10804 10805 10805 10806 10807 10807 10807 10809 10810 10810 10810 10808
10523 10530 10537 10547 10555 10564 10569 10576 10593 10612 10626 10637 10646 10653 10663 10674 10681 10688 10696 10702 10706 10709 10710 10712 10716 10721 10726 10731 10734 10737 10739 10741 10744 10747 10748 10751 10754 10756 10758 10760 10761 10764 10766 10768 10769 10770 10770 10770 10772 10774 10776 10777 10779 10780 10782 10783 10786 10788 10790 10791 10791 10791 10792 10792 10794 10796 10798 10800 10801 10800 10798 10797 10795 10794 10796 10799 10801 10802 10802 10801 10801 10802 10804 10805 10802 10798
10512 10517 10526 10535 10543 10554 10561 10564 10578 10600 10616 10627 10636 10645 10655 10666 10673 10679 10686 10691 10695 10698 10701 10703 10706 10710 10716 10722 10726 10727 10729 10732 10734 10736 10739 10742 10744 10747 10749 10751 10753 10756 10758 10760 10762 10763 10763 10762 10763 10764 10766 10768 10769 10772 10773 10775 10777 10780 10781 10782 10782 10782 10782 10784 10786 10788 10790 10791 10791 10790 10788 10787 10787 10788 10791 10794 10796 10797 10798 10798 10797 10796 10797 10799 10797 10793
10497 10505 10516 10525 10532 10544 10552 10557 10571 10590 10602 10612 10624 10636 10647 10659 10668 10674 10680 10681 10682 10686 10691 10694 10697 10700 10705 10710 10714 10717 10719 10721 10724 10726 10729 10731 10734 10737 10740 10743 10745 10748 10750 10752 10754 10755 10755 10755 10755 10756 10758 10759 10760 10762 10763 10765 10768 10769 10771 10771 10772 10772 10773 10774 10776 10779 10781 10781 10780 10779 10779 10778 10780 10783 10787 10788 10789 10790 10791 10792 10792 10790 10789 10791 10793 10790
10485 10494 10506 10516 10523 10533 10544 10550 10564 10582 10592 10598 10612 10627 10640 10653 10664 10671 10674 10672 10669 10672 10677 10682 10686 10689 10692 10697 10701 10704 10708 10710 10713 10716 10718 10721 10725 10729 10732 10735 10738 10740 10742 10744 10746 10746 10747 10748 10748 10748 10750 10751 10752 10753 10754 10755 10757 10758 10759 10761 10763 10764 10766 10766 10768 10770 10771 10771 10770 10772 10775 10776 10778 10781 10782 10782 10781 10782 10782 10783 10785 10786 10785 10786 10788 10785
10472 10482 10494 10506 10514 10523 10534 10543 10556 10575 10586 10589 10600 10619 10636 10648 10655 10661 10662 10661 10659 10660 10663 10669 10673 10676 10679 10684 10688 10692 10696 10699 10702 10705 10708 10712 10717 10720 10724 10728 10730 10733 10735 10737 10738 10739 10740 10741 10741 10742 10742 10743 10744 10745 10746 10747 10748 10748 10749 10751 10753 10756 10758 10759 10760 10761 10762 10763 10766 10769 10772 10773 10774 10775 10775 10775 10774 10774 10775 10775 10777 10780 10782 10784 10784 10779
10463 10472 10485 10497 10506 10515 10526 10536 10547 10565 10577 10580 10591 10611 10629 10637 10641 10646 10649 10649 10649 10650 10652 10655 10660 10664 10667 10672 10676 10680 10685 10689 10692 10697 10701 10704 10709 10712 10716 10719 10722 10725 10727 10728 10730 10731 10732 10733 10735 10735 10734 10735 10736 10738 10739 10739 10739 10740 10740 10742 10744 10747 10749 10751 10752 10753 10755 10758 10760 10762 10763 10764 10765 10766 10768 10769 10769 10768 10769 10769 10771 10773 10774 10776 10778 10774